[[{"header":{"parameterUnit":"m.s-1","parameterCategory":1,"la1":30.2991,"la2":30.254,"lo1":-89.0895,"lo2":-89.0444,"dy":0.0017,"dx":0.0017,"nx":28,"ny":28,"refTime":"2024-08-25T09:00:00:Z","depth":0,"parameterNumber":2,"parameterNumberName":"U-component_of_WINDS"},"data":[0,0,0,0,0,0,0,0,0,0,0,0,0,0,0,0,0,0,0,0,0,0,0,0,0,0,0,0,0,0,0,0,0,0,0,0,0,0,0,0,0,0,0,0,0,0,0,0,0,0,0,0,0,0,0,0,0,0,-1.6209,-1.6209,0,-1.62,-1.62,-1.62,-1.6104,-1.6101,-1.6099,-1.6096,-1.609,-1.6092,-1.6094,0,0,0,0,0,0,0,0,0,0,0,0,0,-1.6143,-1.6145,-1.6209,-1.6209,-1.6209,-1.62,-1.62,-1.62,-1.6104,-1.6101,-1.6098,-1.6095,-1.6089,-1.6092,-1.6094,0,0,0,0,0,0,0,0,0,0,0,0,0,-1.6157,-1.6145,-1.6209,-1.616,-1.6155,-1.62,-1.62,-1.62,-1.6105,-1.6101,-1.6097,-1.6094,-1.6088,-1.6091,-1.6095,-1.6187,0,0,-1.6104,-1.6105,0,0,0,0,0,0,0,0,-1.6156,-1.6159,-1.6167,-1.6163,-1.6158,-1.6149,-1.6174,-1.6196,-1.6106,-1.6124,-1.6096,-1.6092,-1.6113,-1.6114,-1.612,-1.6187,-1.6186,-1.6104,-1.6106,-1.6108,-1.6109,0,0,0,0,0,0,0,-1.6155,-1.6159,-1.6205,-1.6167,-1.6162,-1.6138,-1.6136,-1.6178,-1.6139,-1.6122,-1.6115,-1.6115,-1.611,-1.6117,-1.6119,-1.6186,-1.6104,-1.6107,-1.6109,-1.611,-1.6328,-1.6332,0,0,0,0,0,0,-1.6161,-1.6159,-1.6206,-1.6205,-1.6148,-1.6142,-1.614,-1.6156,-1.6138,-1.6132,-1.6118,-1.6111,-1.6114,-1.6116,-1.6119,-1.6226,-1.6108,-1.6111,-1.6112,-1.6324,-1.6329,-1.6333,0,0,0,0,0,0,-1.616,-1.6166,-1.6206,-1.618,-1.6183,-1.6147,-1.6166,-1.6158,-1.6165,-1.6135,-1.6128,-1.6133,-1.6111,-1.6114,-1.617,-1.6224,-1.6112,-1.6115,-1.6319,-1.6326,-1.6331,-1.6442,0,0,0,0,0,0,-1.6159,-1.6166,-1.6201,-1.6182,-1.6185,-1.6258,-1.6169,-1.616,-1.6171,-1.6161,-1.6148,-1.6142,-1.6108,-1.6166,-1.6174,-1.6227,-1.6117,-1.6315,-1.6322,-1.6329,-1.6433,-1.6451,-1.6466,0,0,0,0,0,-1.6157,-1.6233,-1.6203,-1.621,-1.6228,-1.6262,-1.6264,-1.6223,-1.6175,-1.621,-1.6191,-1.6142,-1.6217,-1.6173,-1.618,-1.6235,-1.6311,-1.632,-1.6329,-1.6426,-1.6447,-1.6465,0,0,0,0,0,0,-1.6261,-1.623,-1.6196,-1.6269,-1.6268,-1.6245,-1.6288,-1.6247,-1.626,-1.6251,-1.62,-1.6198,-1.6262,-1.6254,-1.6205,-1.6324,-1.6255,-1.6266,-1.6327,-1.6347,-1.6363,-1.6365,-1.612,0,0,0,0,0,-1.6292,-1.6322,-1.6293,-1.636,-1.6361,-1.6325,-1.6338,-1.6306,-1.6304,-1.6304,-1.6288,-1.6289,-1.6312,-1.6329,-1.6348,-1.6431,-1.6427,-1.6472,-1.6488,-1.6502,-1.6512,-1.6555,-1.6575,-1.6362,-1.6362,-1.6362,0,0,-1.6358,-1.6344,-1.6366,-1.638,-1.6376,-1.6408,-1.6325,-1.6363,-1.6386,-1.6309,-1.6362,-1.6351,-1.6347,-1.6417,-1.6447,-1.6412,-1.657,-1.6513,-1.6524,-1.6527,-1.6566,-1.6587,-1.6605,-1.6368,-1.6367,-1.6366,0,0,-1.6494,-1.6486,-1.6541,-1.6538,-1.6532,-1.6507,-1.6521,-1.6503,-1.6493,-1.6544,-1.6487,-1.6514,-1.6555,-1.6555,-1.6561,-1.6695,-1.6652,-1.6703,-1.6789,-1.6831,-1.6848,-1.6863,-1.6912,-1.693,-1.6713,-1.6713,-1.6713,0,-1.6576,-1.6622,-1.6574,-1.6616,-1.6624,-1.6554,-1.6609,-1.6609,-1.6611,-1.6618,-1.6579,-1.6629,-1.6622,-1.6691,-1.6723,-1.673,-1.6744,-1.6705,-1.6849,-1.6864,-1.6877,-1.6923,-1.6941,-1.672,-1.6719,-1.6718,-1.6718,0,-1.6724,-1.6756,-1.6801,-1.6803,-1.6816,-1.6865,-1.6825,-1.6844,-1.681,-1.679,-1.6843,-1.6831,-1.6848,-1.6861,-1.683,-1.6926,-1.6905,-1.6858,-1.6789,-1.6904,-1.6947,-1.6964,-1.6729,-1.6726,-1.6725,-1.6723,0,0,-1.6928,-1.6901,-1.6919,-1.6919,-1.6907,-1.6932,-1.6976,-1.6991,-1.7009,-1.7012,-1.7049,-1.7084,-1.7041,-1.7047,-1.7015,-1.7052,-1.716,-1.7,-1.7,-1.7032,-1.7266,-1.7303,-1.7324,-1.713,-1.7133,-1.7135,-1.7267,0,-1.7059,-1.7134,-1.7092,-1.7173,-1.7203,-1.7136,-1.7175,-1.7172,-1.7154,-1.7176,-1.7155,-1.7182,-1.7122,-1.7126,-1.7159,-1.714,-1.7207,-1.7129,-1.7165,-1.7167,-1.717,-1.7346,-1.7385,-1.751,-1.7283,-1.7286,-1.7288,0,-1.7224,-1.7233,-1.7317,-1.7298,-1.7309,-1.7345,-1.7355,-1.7377,-1.7372,-1.7356,-1.7363,-1.7321,-1.7364,-1.7294,-1.7353,-1.7301,-1.7313,-1.7305,-1.7309,-1.7313,-1.7236,-1.7356,-1.7548,-1.7568,-1.7313,-1.7311,-1.731,0,-1.7366,-1.7399,-1.7453,-1.7455,-1.7435,-1.7461,-1.7454,-1.7445,-1.7457,-1.7466,-1.7473,-1.7487,-1.7495,-1.7507,-1.747,-1.7423,-1.7535,-1.7461,-1.7524,-1.7525,-1.7552,-1.7551,-1.7751,-1.7557,-1.7557,-1.7556,-1.7556,0,-1.7519,-1.7573,-1.7516,-1.755,-1.7609,-1.756,-1.7619,-1.7605,-1.7598,-1.7628,-1.757,-1.76,-1.7548,-1.7573,-1.7544,-1.7598,-1.7602,-1.7591,-1.7583,-1.7597,-1.7599,-1.7606,-1.7597,-1.7561,-1.756,-1.7559,-1.7558,0,-1.7688,-1.7652,-1.7707,-1.7683,-1.7678,-1.7722,-1.7701,-1.7732,-1.7708,-1.7747,-1.7754,-1.7717,-1.7743,-1.7707,-1.7729,-1.7709,-1.7784,-1.7762,-1.7786,-1.778,-1.7845,-1.784,-1.8057,-1.8084,-1.7872,-1.7874,-1.7875,0,-1.7789,-1.7829,-1.7808,-1.7824,-1.782,-1.7846,-1.7857,-1.7809,-1.7823,-1.782,-1.7851,-1.7872,-1.7886,-1.793,-1.7907,-1.7923,-1.7902,-1.7977,-1.7905,-1.7918,-1.7905,-1.7904,-1.7909,-1.7993,-1.7996,-1.7998,-1.7999,0,-1.7973,-1.7952,-1.797,-1.7982,-1.7996,-1.8003,-1.8006,-1.8022,-1.7972,-1.7991,-1.8016,-1.8027,-1.8049,-1.8071,-1.8081,-1.8074,-1.803,-1.8022,-1.8038,-1.8054,-1.8066,-1.8062,-1.7828,-1.8018,-1.8016,-1.8015,-1.8014,-1.8013,-1.8112,-1.8144,-1.8135,-1.8156,-1.8153,-1.8156,-1.8184,-1.8163,-1.8183,-1.8197,-1.8167,-1.82,-1.8193,-1.8202,-1.82,-1.8225,-1.8192,-1.8215,-1.822,-1.8227,-1.8238,-1.8061,-1.8226,-1.8226,-1.8225,-1.8225,-1.8224,0,-1.8294,-1.8283,-1.8304,-1.8309,-1.8326,-1.828,-1.828,-1.8298,-1.8327,-1.8324,-1.8338,-1.8368,-1.8388,-1.8365,-1.8381,-1.8406,-1.8386,-1.8412,-1.8411,-1.841,-1.8265,-1.8251,-1.8428,-1.8428,-1.8428,-1.8428,-1.8428,-1.8428,-1.839,-1.8443,-1.8421,-1.8472,-1.8461,-1.8492,-1.8496,-1.8499,-1.8496,-1.8531,-1.8547,-1.8531,-1.8521,-1.8535,-1.8552,-1.8545,-1.8554,-1.8588,-1.8574,-1.844,-1.842,-1.8401,-1.8388,-1.859,-1.859,-1.8717,-1.8718,-1.8719]},{"header":{"parameterUnit":"m.s-1","parameterCategory":1,"la1":30.2991,"la2":30.254,"lo1":-89.0895,"lo2":-89.0444,"dy":0.0017,"dx":0.0017,"nx":28,"ny":28,"refTime":"2024-08-25T09:00:00:Z","depth":0,"parameterNumber":3,"parameterNumberName":"V-component_of_WINDS"},"data":[0,0,0,0,0,0,0,0,0,0,0,0,0,0,0,0,0,0,0,0,0,0,0,0,0,0,0,0,0,0,0,0,0,0,0,0,0,0,0,0,0,0,0,0,0,0,0,0,0,0,0,0,0,0,0,0,0,0,-2.3105,-2.3106,0,-2.3204,-2.3205,-2.3206,-2.3244,-2.3243,-2.3243,-2.3243,-2.3341,-2.3344,-2.3347,0,0,0,0,0,0,0,0,0,0,0,0,0,-2.2946,-2.2948,-2.3105,-2.3106,-2.3107,-2.3203,-2.3205,-2.3206,-2.3244,-2.3243,-2.3243,-2.3243,-2.334,-2.3344,-2.3347,0,0,0,0,0,0,0,0,0,0,0,0,0,-2.3026,-2.2949,-2.3105,-2.3138,-2.3142,-2.3203,-2.3205,-2.3207,-2.3244,-2.3243,-2.3243,-2.3243,-2.3339,-2.3343,-2.3348,-2.3383,0,0,-2.3361,-2.3363,0,0,0,0,0,0,0,0,-2.3022,-2.3032,-2.3132,-2.3136,-2.314,-2.3211,-2.3185,-2.3265,-2.3244,-2.3205,-2.3243,-2.3242,-2.3298,-2.3306,-2.3325,-2.3387,-2.3391,-2.3361,-2.3364,-2.3366,-2.3367,0,0,0,0,0,0,0,-2.3016,-2.3028,-2.3144,-2.3133,-2.3138,-2.3147,-2.3158,-2.32,-2.3253,-2.3208,-2.3211,-2.3223,-2.33,-2.3321,-2.3328,-2.3393,-2.3361,-2.3365,-2.3368,-2.3369,-2.3488,-2.3489,0,0,0,0,0,0,-2.3005,-2.3023,-2.3141,-2.3147,-2.3079,-2.315,-2.3162,-2.3189,-2.3252,-2.3262,-2.3223,-2.3224,-2.3314,-2.3323,-2.3331,-2.3376,-2.3366,-2.337,-2.3372,-2.3487,-2.3488,-2.3489,0,0,0,0,0,0,-2.3002,-2.3016,-2.3137,-2.3086,-2.3102,-2.3153,-2.3182,-2.3191,-2.3211,-2.3263,-2.3272,-2.3235,-2.3314,-2.3325,-2.337,-2.338,-2.3372,-2.3376,-2.3487,-2.3488,-2.3488,-2.3466,0,0,0,0,0,0,-2.2997,-2.3014,-2.3029,-2.3086,-2.3105,-2.3174,-2.3183,-2.3193,-2.3219,-2.3222,-2.3277,-2.3285,-2.3314,-2.3363,-2.3374,-2.3386,-2.3379,-2.3486,-2.3487,-2.3488,-2.3466,-2.3466,-2.3466,0,0,0,0,0,-2.2991,-2.3018,-2.3029,-2.3043,-2.3124,-2.3175,-2.3185,-2.3219,-2.322,-2.3234,-2.3268,-2.3284,-2.3377,-2.3367,-2.338,-2.3393,-2.3486,-2.3487,-2.3488,-2.3466,-2.3466,-2.3466,0,0,0,0,0,0,-2.296,-2.3026,-2.3039,-2.3085,-2.3124,-2.3181,-2.3201,-2.3218,-2.3257,-2.3257,-2.3296,-2.3308,-2.3349,-2.3376,-2.3364,-2.343,-2.3432,-2.3436,-2.3411,-2.3412,-2.3412,-2.3404,-2.3383,0,0,0,0,0,-2.2958,-2.2995,-2.3051,-2.3086,-2.3105,-2.3149,-2.3172,-2.3195,-2.3236,-2.3253,-2.3289,-2.3328,-2.3366,-2.3391,-2.3429,-2.347,-2.3482,-2.3486,-2.3485,-2.3485,-2.3488,-2.3511,-2.3513,-2.3493,-2.3493,-2.3493,0,0,-2.2955,-2.2996,-2.3017,-2.308,-2.3113,-2.3149,-2.3163,-2.32,-2.3227,-2.3258,-2.3303,-2.3331,-2.3376,-2.342,-2.344,-2.3443,-2.3496,-2.3487,-2.3486,-2.3489,-2.3513,-2.3515,-2.3516,-2.3494,-2.3494,-2.3494,0,0,-2.2968,-2.3003,-2.3036,-2.3069,-2.3118,-2.3148,-2.3156,-2.321,-2.323,-2.3275,-2.3299,-2.3331,-2.3396,-2.3428,-2.3452,-2.3477,-2.3493,-2.3488,-2.3488,-2.351,-2.3512,-2.3513,-2.3521,-2.3524,-2.3491,-2.3491,-2.3491,0,-2.2958,-2.3014,-2.305,-2.3087,-2.3114,-2.3145,-2.3178,-2.3207,-2.3266,-2.3284,-2.3286,-2.3368,-2.3401,-2.3452,-2.3458,-2.3477,-2.3486,-2.3482,-2.3509,-2.3511,-2.3513,-2.3521,-2.3524,-2.349,-2.349,-2.349,-2.349,0,-2.2999,-2.3037,-2.3058,-2.3115,-2.3144,-2.3179,-2.3219,-2.3245,-2.3264,-2.3293,-2.3338,-2.3379,-2.3426,-2.3439,-2.3459,-2.3493,-2.3493,-2.3501,-2.3504,-2.3513,-2.3521,-2.3525,-2.3488,-2.3489,-2.3489,-2.3489,0,0,-2.2994,-2.3071,-2.3078,-2.3104,-2.3161,-2.3191,-2.3227,-2.3273,-2.3294,-2.3333,-2.3363,-2.3418,-2.3426,-2.3454,-2.3477,-2.3497,-2.3513,-2.3503,-2.3505,-2.3503,-2.3552,-2.3545,-2.3548,-2.3524,-2.3525,-2.3525,-2.3548,0,-2.3014,-2.3081,-2.3114,-2.3165,-2.3201,-2.323,-2.3261,-2.3299,-2.3326,-2.336,-2.339,-2.3428,-2.3436,-2.3453,-2.3474,-2.3506,-2.3523,-2.3505,-2.3551,-2.3553,-2.3539,-2.3552,-2.3545,-2.3565,-2.3551,-2.3552,-2.3552,0,-2.3047,-2.3087,-2.3142,-2.3194,-2.3211,-2.3238,-2.3283,-2.3315,-2.3358,-2.3376,-2.3407,-2.343,-2.3468,-2.3468,-2.352,-2.3507,-2.3528,-2.3546,-2.3548,-2.3553,-2.3553,-2.3558,-2.3572,-2.3574,-2.3558,-2.3558,-2.3557,0,-2.3038,-2.3105,-2.3147,-2.3168,-2.3231,-2.3249,-2.3276,-2.3318,-2.3344,-2.3383,-2.34,-2.3442,-2.3465,-2.3497,-2.3531,-2.3528,-2.3579,-2.3582,-2.3595,-2.3594,-2.3604,-2.3603,-2.3621,-2.3618,-2.3617,-2.3617,-2.3617,0,-2.3056,-2.3089,-2.3143,-2.3169,-2.3206,-2.3243,-2.3278,-2.3307,-2.3345,-2.3376,-2.3403,-2.3431,-2.3474,-2.3507,-2.3533,-2.3572,-2.3582,-2.3597,-2.3604,-2.3595,-2.3593,-2.3609,-2.3608,-2.3618,-2.3618,-2.3618,-2.3618,0,-2.3052,-2.309,-2.3137,-2.3193,-2.3207,-2.3232,-2.3279,-2.3304,-2.3333,-2.3372,-2.3383,-2.3428,-2.3469,-2.3505,-2.3559,-2.3576,-2.3615,-2.3624,-2.3601,-2.3605,-2.3615,-2.3613,-2.3644,-2.365,-2.3642,-2.3642,-2.3642,0,-2.3062,-2.3087,-2.3145,-2.3168,-2.3195,-2.3232,-2.3258,-2.3296,-2.3322,-2.3373,-2.3392,-2.3434,-2.3471,-2.3534,-2.3571,-2.3612,-2.3621,-2.3629,-2.3627,-2.3617,-2.3621,-2.3619,-2.3621,-2.3628,-2.3628,-2.3628,-2.3628,0,-2.3074,-2.3091,-2.3129,-2.3173,-2.3204,-2.324,-2.3278,-2.3295,-2.3339,-2.3367,-2.3409,-2.3437,-2.3492,-2.3534,-2.3579,-2.3605,-2.3624,-2.3628,-2.3633,-2.3624,-2.361,-2.3617,-2.36,-2.3627,-2.3627,-2.3628,-2.3628,-2.3628,-2.3077,-2.3101,-2.3145,-2.3186,-2.3218,-2.3252,-2.3278,-2.3311,-2.3347,-2.3395,-2.3415,-2.3458,-2.35,-2.3562,-2.3589,-2.3622,-2.3625,-2.3633,-2.3635,-2.3636,-2.3634,-2.3605,-2.363,-2.363,-2.363,-2.363,-2.363,0,-2.309,-2.312,-2.3157,-2.3209,-2.3241,-2.3256,-2.3298,-2.3323,-2.3361,-2.3398,-2.3434,-2.3482,-2.3522,-2.3563,-2.3605,-2.3624,-2.3633,-2.3634,-2.3633,-2.3638,-2.3628,-2.362,-2.3625,-2.3625,-2.3625,-2.3625,-2.3625,-2.3625,-2.3101,-2.3142,-2.3165,-2.3222,-2.3252,-2.3294,-2.3317,-2.3348,-2.3378,-2.3431,-2.3465,-2.3492,-2.353,-2.3576,-2.3613,-2.3624,-2.3638,-2.3636,-2.3649,-2.3639,-2.3639,-2.3639,-2.3631,-2.3639,-2.3639,-2.3656,-2.3656,-2.3656]}]]